Showing default

OPS 3151, 9803

Orbit data source: Space-Track

OPS 3151, 9803 is a payload satellite owned by SAMSO (US) in GEO that was launched on Sun, 06 Feb 1977 UTC via a TITAN IIIC launch vehicle from the Air Force Eastern Test Range (AFETR). Payloads include a variety of satellites, spacecraft, and rockets equipped with specific instruments for various scientific and technological missions. These include communications satellites like Starlink; space stations such as the ISS; scientific satellites like the Hubble; Earth observation satellites from companies like Planet Labs, Umbra, and HawkEye 360; GPS; miniature CubeSats for education and research; and military/defense satellites.

Loading next visibility...
OPS 3151 details
Identifier
9803, 1977-007A
Orbit
GEO
Last TLE update11 hours ago
Origin
Flag of USSAMSO (US)
ManufacturerTRW
MissionDefense Early Warn
Bus & MotorDSP P2, MRE-4
Mass1,040 kg wet, ~980 kg dry
Launch date (UTC)
1977-02-06 (48 years ago)
Launch vehicle
TITAN IIIC
Launch site
Air Force Eastern Test Range (AFETR)
Object type
Payload
Rocket body
Debris
Shape & HBRCyl + 4 Pan, Unknown HBR
Radar Cross Section27.525 m²

Expand to show TLE details & history

TLE from 11 hours ago
0 OPS 3151
1 09803U 77007A   24361.22345692 -.00000093  00000-0  00000-0 0  9993
2 09803   6.1045 289.1418 0081300  24.1289 182.5782  0.97530345 19402
Epoch: 2024-12-26T05:21Z
Definitive object data (Epoch: 2024-12-26T05:21:46.677Z)
Latitude-2.72687°
Longitude-39.99766°
Altitude36,921.69 km
Speed3.022 km/s
True Right ascension09h 02m 36s
True Declination-2° 43' 27"
Sunlit
Object was in daylight at TLE epoch
Visualization TLE readout
Latitude1.21823°
Longitude125.08517°
Altitude36,231.095 km
Speed3.071 km/s
Apparent Right ascension20h 27m 08s
Apparent Declination-4° 28' 49"
Sunlit
Object is in daylight
Visualization observer readout
Local Sidereal Time16:01:23
Azimuth109.054° ESE
Elevation14.804°
Doppler factor1
Orbital elements
Apogee altitude36,923.302 km
Perigee altitude36,224.899 km
Semi-major axis42,952.238 km
Eccentricity0.00813
Inclination6.1045°
RAAN289.1418°
Arg. of periapsis24.1289°
True anomaly182.53671°
Mean anomaly182.5782°
Eccentric anomaly182.55742°
Mean motion0.24382 °/min
BSTARUnknown
Orbital period1476.52 mins
Loading historical data...
9803 neighbors
Authenticating...
Loading maneuver chart data...
Loading historical data...
Loading historical data...
Loading historical data...
Loading historical data...
Loading historical data...
Loading historical data...
Loading historical data...
Other satellites on launch #7 in the year 1977 (1977-02-06 UTC)

OPS 3151 Visibility forecast

Observer location: undefined°, undefined

Span
Click to sort rows by Start time (UTC) header in descending order
Start Az.
Max El. time (UTC)
Max El. Az.
Max El.
End time (UTC)
End Az.
1440 mins2024-12-26 16:39:10.907Z109.068° ESE2024-12-27 16:39:10.907Z117.72° SE20.083°2024-12-27 16:39:10.907Z117.72° SE
|